sat.trackr.live / text

‹ back to catalog

FENGYUN 3D

NORAD 43010 · 2017-072A

PAYLOAD ACTIVE UNKNOWN

§ Identity

Operator
Country
PRC
Launch date
2017-11-14
Launch site
TAISC
Launch vehicle
Mass (kg)
RCS (m²)

Purposes: earth_obs

External: N2YO · Heavens-Above · Gunter

§ Orbital elements

Epoch: 2026-09-20T05:12:54.088416Z

Period
101.43 min
Inclination
99.0254°
Eccentricity
0.0002231
Mean motion
14.19755169 rev/d
Perigee alt
824.6 km
Apogee alt
827.8 km
Semi-major
7,204.3 km
B*
-5.8459e-6
RAAN
239.4092°
Arg perigee
113.4231°
Mean anomaly
246.7179°
Rev number
45,847

§ Raw data

FENGYUN 3D1 43010U 17072A   26263.21729269 -.00000059  00000+0 -58459-5 0  99932 43010  99.0254 239.4092 0002231 113.4231 246.7179 14.19755169458473

JSON: /api/v1/satellites/43010 · /tle

For live sub-satellite position, see the globe view (requires WebGL).

§ Visibility from observer

Set your observer location to see the next 7 days of passes ≥ 10°. The values pass through the URL so the page stays shareable.

No JS? Fill the form by hand. The geolocation button needs JavaScript.

§ Radio — SatNOGS DB

ModeDescriptionDownlinkUplink
AHRPT AHRPT 7.820 GHz
BPSK Telemetry 2.246 GHz
BPSK Telemetry 2 Mode S 2.265 GHz

3 transmitters · refreshed weekly from db.satnogs.org